Chicago O'Hare International, IL

7:44 PM CST on February 19, 2017 (GMT -0600)
Chicago-O'Hare International

Weather History for KORD - May, 2013

Change the Weather History Date:

Monday, May 13, 2013

  Actual Average Record
Temperature  
Mean Temperature 50 °F 58 °F  
Max Temperature 64 °F 69 °F 89 °F (1991)
Min Temperature 36 °F 47 °F 34 °F (1996)
Degree Days  
Heating Degree Days 15 8  
Month to date heating degree days 126 122  
Since 1 July heating degree days 6064 6189  
Cooling Degree Days 0 1  
Month to date cooling degree days 5 11  
Year to date cooling degree days 13 21  
Moisture  
Dew Point 32 °F    
Average Humidity 51    
Maximum Humidity 79    
Minimum Humidity 22    
Precipitation  
Precipitation 0.00 in 0.12 in 1.49 in (2010)
Month to date precipitation 0.63 1.51  
Year to date precipitation 17.90 10.91  
Snow  
Snow 0.00 in 0.00 in T in (1895)
Month to date snowfall 0.0 0.0  
Since 1 July snowfall 30.1 36.6  
Snow Depth 0.00 in    
Sea Level Pressure  
Sea Level Pressure 30.11 in    
Wind  
Wind Speed 6 mph (ENE)    
Max Wind Speed 16 mph    
Max Gust Speed 24 mph    
Visibility 10 miles    
Events      
T = Trace of Precipitation, MM = Missing Value Source: NWS Daily Summary

Daily Weather History Graph

Daily Weather History Graph

Search for Another Location

Airport or City:

Trip Planner

Search our weather history database for the weather conditions in past years. The results will help you decide how hot, cold, wet, or windy it might be!

Date:

Astronomy

May. 13, 2013 Rise Set
Actual Time 5:32 AM CDT 8:03 PM CDT
Civil Twilight 5:01 AM CDT 8:35 PM CDT
Nautical Twilight 4:21 AM CDT 9:15 PM CDT
Astronomical Twilight 3:37 AM CDT 9:59 PM CDT
Moon 8:18 AM CDT (5/13) 11:12 PM CDT (5/13)
Length of Visible Light 15h 34m
Length of Day
14h 30m
Waxing Crescent, 12% of the Moon is Illuminated
May 13
Waxing Crescent
May 17
First Quarter
May 24
Full
May 31
Last Quarter
Jun 8
New

Hourly Weather History & Observations

Time (CDT) Temp. Windchill Dew Point Humidity Pressure Visibility Wind Dir Wind Speed Gust Speed Precip Events Conditions
12:51 AM 41.0 °F - 33.1 °F 73% 30.10 in 10.0 mi Calm Calm - N/A   Partly Cloudy
1:51 AM 41.0 °F - 33.1 °F 73% 30.11 in 10.0 mi Calm Calm - N/A   Partly Cloudy
2:51 AM 39.9 °F 37.8 °F 34.0 °F 79% 30.12 in 10.0 mi ENE 3.5 mph - N/A   Partly Cloudy
3:51 AM 39.0 °F - 34.0 °F 82% 30.12 in 10.0 mi Calm Calm - N/A   Clear
4:51 AM 39.9 °F - 34.0 °F 79% 30.11 in 10.0 mi Calm Calm - N/A   Clear
5:51 AM 39.9 °F 36.7 °F 34.0 °F 79% 30.12 in 10.0 mi NNE 4.6 mph - N/A   Partly Cloudy
6:51 AM 42.1 °F 40.2 °F 35.1 °F 76% 30.15 in 10.0 mi North 3.5 mph - N/A   Clear
7:51 AM 45.0 °F 43.5 °F 35.1 °F 68% 30.17 in 10.0 mi East 3.5 mph - N/A   Clear
8:51 AM 48.0 °F - 35.1 °F 61% 30.18 in 10.0 mi Calm Calm - N/A   Clear
9:51 AM 51.1 °F - 32.0 °F 48% 30.18 in 10.0 mi Calm Calm - N/A   Clear
10:51 AM 55.0 °F - 30.0 °F 38% 30.18 in 10.0 mi WNW 6.9 mph - N/A   Partly Cloudy
11:51 AM 57.9 °F - 27.0 °F 31% 30.16 in 10.0 mi West 11.5 mph - N/A   Partly Cloudy
12:51 PM 59.0 °F - 25.0 °F 27% 30.14 in 10.0 mi WNW 9.2 mph 19.6 mph N/A   Partly Cloudy
1:51 PM 60.1 °F - 21.9 °F 23% 30.12 in 10.0 mi WNW 6.9 mph - N/A   Partly Cloudy
2:51 PM 59.0 °F - 34.0 °F 39% 30.11 in 10.0 mi East 9.2 mph 24.2 mph N/A   Scattered Clouds
3:51 PM 59.0 °F - 33.1 °F 38% 30.09 in 10.0 mi East 11.5 mph - N/A   Scattered Clouds
4:51 PM 57.9 °F - 32.0 °F 37% 30.07 in 10.0 mi ENE 9.2 mph - N/A   Mostly Cloudy
5:51 PM 55.9 °F - 32.0 °F 40% 30.07 in 10.0 mi East 11.5 mph - N/A   Overcast
6:51 PM 55.4 °F - 32.0 °F 41% 30.05 in 10.0 mi East 9.2 mph - N/A   Overcast
7:51 PM 54.0 °F - 30.9 °F 41% 30.05 in 10.0 mi East 8.1 mph - N/A   Overcast
8:51 PM 54.0 °F - 32.0 °F 43% 30.04 in 10.0 mi ESE 8.1 mph - N/A   Overcast
9:51 PM 54.0 °F - 30.9 °F 41% 30.06 in 10.0 mi East 5.8 mph - N/A   Mostly Cloudy
10:51 PM 54.0 °F - 32.0 °F 43% 30.03 in 10.0 mi East 6.9 mph - N/A   Overcast
11:51 PM 52.0 °F - 36.0 °F 54% 30.00 in 10.0 mi SSE 5.8 mph - N/A   Mostly Cloudy